Regional Weather Roundup
Issued by NWS Cleveland, OH

Home | Current Version | Previous Version | Text Only | Print | Product List | Glossary Off
Versions: 1 2 3 4 5 6 7 8 9 10 11 12 13 14 15 16 17 18 19 20 21 22 23 24 25 26 27 28 29 30 31 32 33 34 35 36 37 38 39 40 41 42 43 44 45 46 47 48 49 50

000
ASUS41 KCLE 292302
RWRCLE
OHIO REGIONAL WEATHER ROUNDUP
NATIONAL WEATHER SERVICE CLEVELAND, OH
700 PM EDT WED JUL 29 2015

NOTE: "FAIR" INDICATES FEW OR NO CLOUDS BELOW 12,000 FEET WITH NO
SIGNIFICANT WEATHER AND/OR OBSTRUCTIONS TO VISIBILITY.

OHZ001>008-015>018-024>027-034-035-043-044-300000-
   NORTHWEST OHIO

CITY           SKY/WX    TMP DP  RH WIND       PRES   REMARKS
DEFIANCE       MOSUNNY   88  73  61 NW14      29.91S HX  95
FINDLAY        CLOUDY    83  74  74 W8        29.91F
TOLEDO EXPRESS PTSUNNY   80  75  84 SW8       29.90F
TOLEDO EXEC    CLOUDY    78  73  84 W5        29.91F
LIMA           CLOUDY    81  74  79 W5        29.93F
$$

OHZ009>014-019>023-028>033-038-089-300000-
   NORTHEAST OHIO

CITY           SKY/WX    TMP DP  RH WIND       PRES   REMARKS
CLE-HOPKINS    PTSUNNY   87  68  52 SW7       29.92S HX  90
CLE-LAKEFRONT  PTSUNNY   84  68  58 NE6       29.88F
CUY CO. ARPT   CLOUDY    88  66  48 CALM      29.91F HX  90
LORAIN-ELYRIA  CLOUDY    85  70  60 W5        29.91S
ASHTABULA      SUNNY     85  65  51 N3        29.92F
AKRON-CANTON   PTSUNNY   87  68  52 SW5       29.94S HX  90
WOOSTER        MOSUNNY   83  72  69 SW6       29.93F
MANSFIELD      PTSUNNY   85  71  63 SW7       29.94F HX  90
YOUNGSTOWN     PTSUNNY   85  69  58 SW3       29.93F
$$

OHZ042-051>053-060>062-070>072-077>081-300000-
  SOUTHWEST OHIO

CITY           SKY/WX    TMP DP  RH WIND       PRES   REMARKS
CINC-COVINGTON TSTM      78  72  81 N15G26    29.97R
CINC-LUNKEN    TSTM      77  76  96 S9        29.95S FOG
HAMILTON       LGT RAIN  81  76  84 SE5       29.95F
DAYTON         CLOUDY    81  75  82 S7        29.95F
WRIGHT-PAT AFB NOT AVBL
DAYTON GENERAL CLOUDY    78  73  84 E5        29.95F
WILMINGTON     CLOUDY    74  71  91 SE5       29.96F
$$

OHZ036-037-039>041-045>050-054>059-063>069-073>076-082>088-300000-
  CENTRAL AND SOUTHEAST OHIO

CITY           SKY/WX    TMP DP  RH WIND       PRES   REMARKS
COLUMBUS       TSTM      82  69  64 W28G33    29.94R
OSU AIRPORT    TSTM      74  73  97 S9        29.96R FOG
BOLTON FIELD   TSTM     N/A N/A N/A W5        29.96R VSB 1
RICKENBACK AFB TSTM      79  72  78 W12       29.95R
NEWARK         MOSUNNY   88  72  58 SW3       29.92F HX  94
MARION         CLOUDY    79  72  79 W5        29.94R
LANCASTER      PTSUNNY   86  73  65 SW5       29.94S HX  93
ZANESVILLE     MOSUNNY   86  71  60 W5        29.93S HAZE    HX  91
NEW PHILLY     SUNNY     86  72  62 SW3       29.93F HX  92
$$



USA.gov is the U.S. government's official web portal to all federal, state and local government web resources and services.